User: anonymous   Login
Location: Bailleul
(50.3375°N, 2.8513°E)
Time: 10:54:58
(UTC+00:00)
Language:

YAOGAN 11 DEB - Orbit

View from above orbital plane
View from above orbital plane
View from above satellite
View from above satellite

Ground track
Ground track

The orbit data is extracted from the following two-line orbital elements,

1 38174U 10047D   22021.48768609  .00000567  00000-0  18370-3 0  9990
2 38174  97.9773 118.0174 0207802  51.7984   6.6800 14.30815816585568
Epoch (UTC): 21 January 2022 11:42:16
Eccentricity: 0.0207802
inclination: 97.9773°
perigee height: 640 km
apogee height: 938 km
right ascension of ascending node: 118.0174°
argument of perigee: 51.7984°
revolutions per day: 14.30815816
mean anomaly at epoch: 6.6800°
orbit number at epoch: 58556

The dashed part of the orbit path shows where the satellite is in the earth's shadow,  

DLR